Weather History for Marion Regional, IL

Change the Weather History Date:

Wednesday, December 26, 2012

  Actual Average Record
Temperature  
Mean Temperature 32 °F -  
Max Temperature 33 °F 37 °F 66 °F (2008)
Min Temperature 30 °F 20 °F -10 °F (1983)
Degree Days  
Heating Degree Days 34    
Moisture  
Dew Point 29 °F    
Average Humidity 89    
Maximum Humidity 100    
Minimum Humidity 75    
Precipitation  
Precipitation 0.01 in - - ()
Sea Level Pressure  
Sea Level Pressure 29.93 in    
Wind  
Wind Speed 15 mph (NNW)    
Max Wind Speed 23 mph    
Max Gust Speed 29 mph    
Visibility 7 miles    
Events Snow    
Averages and records for this station are not official NWS values.
T = Trace of Precipitation, MM = Missing Value Source: NWS Daily Summary

Daily Weather History Graph

Daily Weather History Graph

Search for Another Location

Airport:

Trip Planner

Search our weather history database for the weather conditions in past years. The results will help you decide how hot, cold, wet, or windy it might be!

Date:

Astronomy

Dec. 26, 2012 Rise Set
Actual Time 7:10 AM CST 4:43 PM CST
Civil Twilight 6:40 AM CST 5:13 PM CST
Nautical Twilight 6:07 AM CST 5:46 PM CST
Astronomical Twilight 5:35 AM CST 6:18 PM CST
Moon 3:36 PM CST (12/26) 5:33 AM CST (12/26)
Length of Visible Light 10h 32m
Length of Day
9h 33m
Waxing Gibbous, 97% of the Moon is Illuminated
Dec 26
Waxing Gibbous
Dec 28
Full
Jan 4
Last Quarter
Jan 11
New
Jan 18
First Quarter

Hourly Weather History & Observations

Time (CST) Temp. Windchill Dew Point Humidity Pressure Visibility Wind Dir Wind Speed Gust Speed Precip Events Conditions
12:15 AM 32.0 °F 20.1 °F 30.2 °F 93% 29.80 in 4.0 mi North 19.6 mph 26.5 mph N/A Snow Light Snow
12:35 AM 32.0 °F 20.5 °F 30.2 °F 93% 29.80 in 4.0 mi North 18.4 mph 27.6 mph N/A   Overcast
12:55 AM 32.0 °F 20.5 °F 30.2 °F 93% 29.80 in 3.0 mi North 18.4 mph 24.2 mph N/A Snow Light Snow
1:15 AM 32.0 °F 20.8 °F 30.2 °F 93% 29.80 in 2.5 mi North 17.3 mph 23.0 mph N/A Snow Light Snow
1:35 AM 32.0 °F 20.8 °F 30.2 °F 93% 29.78 in 1.2 mi North 17.3 mph 26.5 mph N/A Snow Light Snow
1:55 AM 32.0 °F 20.8 °F 32.0 °F 100% 29.77 in - North 17.3 mph 23.0 mph N/A   Overcast
2:15 AM 32.0 °F 20.5 °F 32.0 °F 100% 29.77 in - North 18.4 mph 25.3 mph N/A   Overcast
2:35 AM 32.0 °F 20.8 °F 32.0 °F 100% 29.74 in - North 17.3 mph 25.3 mph 0.01 in   Overcast
2:55 AM 32.0 °F 21.2 °F 32.0 °F 100% 29.74 in - North 16.1 mph - 0.01 in   Overcast
3:15 AM 32.0 °F 20.1 °F 32.0 °F 100% 29.73 in - North 19.6 mph 27.6 mph N/A   Overcast
3:35 AM 32.0 °F 20.5 °F 32.0 °F 100% 29.72 in - North 18.4 mph 27.6 mph N/A   Unknown
3:55 AM 32.0 °F 20.5 °F 32.0 °F 100% 29.72 in - North 18.4 mph 27.6 mph N/A   Unknown
4:15 AM 32.0 °F 20.5 °F 32.0 °F 100% 29.72 in - North 18.4 mph 27.6 mph N/A   Overcast
4:35 AM 32.0 °F 20.5 °F 32.0 °F 100% 29.72 in - North 18.4 mph 25.3 mph N/A   Unknown
4:55 AM 32.0 °F 20.5 °F 32.0 °F 100% 29.72 in - North 18.4 mph 28.8 mph N/A   Overcast
5:15 AM 32.0 °F 20.8 °F 32.0 °F 100% 29.73 in - North 17.3 mph 27.6 mph N/A   Overcast
5:35 AM 32.0 °F 20.8 °F 32.0 °F 100% 29.73 in - NNW 17.3 mph 25.3 mph N/A   Overcast
6:55 AM 30.2 °F 18.5 °F 30.2 °F 100% 29.78 in 0.2 mi North 17.3 mph - N/A Snow Heavy Blowing Snow
7:55 AM 30.2 °F 18.5 °F 30.2 °F 100% 29.79 in 0.5 mi North 17.3 mph 23.0 mph N/A Snow Heavy Snow
8:55 AM 30.2 °F 16.8 °F 30.2 °F 100% 29.82 in 0.5 mi NNW 23.0 mph - N/A Snow Heavy Snow
9:55 AM 32.0 °F 20.8 °F 30.2 °F 93% 29.87 in 1.0 mi NNW 17.3 mph - N/A Snow Snow
10:55 AM 32.0 °F 20.8 °F 30.2 °F 93% 29.90 in 2.0 mi NNW 17.3 mph - N/A Snow Snow
1:55 PM 33.8 °F 24.3 °F 28.4 °F 81% 29.95 in 7.0 mi NNW 13.8 mph 19.6 mph N/A   Overcast
2:55 PM 33.8 °F 25.3 °F 28.4 °F 81% 29.98 in 15.0 mi NNW 11.5 mph 17.3 mph N/A   Overcast
3:55 PM 33.8 °F 24.3 °F 26.6 °F 75% 30.02 in 20.0 mi NW 13.8 mph - N/A   Overcast
4:55 PM 33.8 °F 25.3 °F 26.6 °F 75% 30.05 in 20.0 mi NW 11.5 mph - N/A   Overcast
5:55 PM 33.8 °F 25.3 °F 26.6 °F 75% 30.08 in 20.0 mi WNW 11.5 mph - N/A   Overcast
6:55 PM 32.0 °F 24.8 °F 26.6 °F 80% 30.09 in - NW 8.1 mph - N/A   Overcast
7:15 PM 32.0 °F 24.2 °F 26.6 °F 80% 30.10 in - NW 9.2 mph 17.3 mph N/A   Overcast
7:35 PM 32.0 °F 25.6 °F 26.6 °F 80% 30.10 in - NW 6.9 mph - N/A   Overcast
7:55 PM 32.0 °F 24.8 °F 26.6 °F 80% 30.11 in - NNW 8.1 mph - N/A   Overcast
8:15 PM 32.0 °F 25.6 °F 26.6 °F 80% 30.12 in - NW 6.9 mph - N/A   Overcast
8:35 PM 32.0 °F 24.8 °F 26.6 °F 80% 30.12 in - NW 8.1 mph - N/A   Overcast
8:55 PM 32.0 °F 26.4 °F 26.6 °F 80% 30.12 in - NW 5.8 mph - N/A   Overcast
9:15 PM 32.0 °F 23.6 °F 26.6 °F 80% 30.12 in - NNW 10.4 mph - N/A   Overcast
9:35 PM 32.0 °F 24.8 °F 26.6 °F 80% 30.13 in - NNW 8.1 mph - N/A   Overcast
9:55 PM 32.0 °F 25.6 °F 26.6 °F 80% 30.13 in - NW 6.9 mph - N/A   Overcast
10:15 PM 32.0 °F 27.5 °F 26.6 °F 80% 30.14 in - NW 4.6 mph - N/A   Overcast
10:35 PM 32.0 °F 27.5 °F 26.6 °F 80% 30.14 in - NW 4.6 mph - N/A   Overcast
10:55 PM 32.0 °F 26.4 °F 26.6 °F 80% 30.15 in - NW 5.8 mph - N/A   Overcast
11:15 PM 32.0 °F 28.7 °F 26.6 °F 80% 30.17 in - WNW 3.5 mph - N/A   Overcast
11:35 PM 32.0 °F 28.7 °F 26.6 °F 80% 30.17 in - WNW 3.5 mph - N/A   Overcast
11:55 PM 32.0 °F - 26.6 °F 80% 30.17 in - Calm Calm - N/A   Overcast